Simultaneous Nadir Overpasses (SNOs) Predictions

Prediction of SNOs between METOP-B and TERRA Satellite Orbit:

Table of predicted SNOs for the next 14.0 days since TLE Epoch: 7/14/2017
Index Date (METOP-B) Time (METOP-B) Lat,Lon (METOP-B) SZA (METOP-B ) Date (TERRA) Time (TERRA) Lat,Lon (TERRA) SZA (TERRA ) Distance(km) Time Diff (sec)
1 07/16/2017 09:46:08 81.34, 81.40 62.86 07/16/2017 09:46:23 81.34, 81.47 62.87 1.24 15
2 07/16/2017 10:36:48 -81.34,-111.08 117.12 07/16/2017 10:35:50 -81.34,-110.93 117.13 2.53 58
3 07/19/2017 05:20:28 81.34, 147.97 63.36 07/19/2017 05:20:40 81.34, 147.86 63.35 1.91 12
4 07/19/2017 06:11:08 -81.34, -44.47 116.61 07/19/2017 06:10:07 -81.34, -44.52 116.65 0.80 61
5 07/22/2017 00:54:48 81.34,-145.87 63.85 07/22/2017 00:54:56 81.34,-145.79 63.87 1.32 8
6 07/22/2017 01:45:28 -81.34, 21.73 116.11 07/22/2017 01:44:23 -81.34, 21.85 116.13 2.11 65
7 07/24/2017 20:29:08 81.34, -79.33 64.45 07/24/2017 20:29:13 81.33, -79.47 64.43 2.59 5
8 07/24/2017 21:19:48 -81.34, 88.31 115.51 07/24/2017 21:18:40 -81.33, 88.19 115.57 2.36 68
9 07/27/2017 15:13:08 -81.16, 171.89 115.91 07/27/2017 15:14:22 -80.90, 172.62 116.00 31.77 74
10 07/27/2017 16:03:28 81.34, -12.80 65.08 07/27/2017 16:03:29 81.34, -12.81 65.08 0.39 1




NCC Satellite Simultaneous Nadir Overpasses (SNOs) Prediction Service
